Location: *
(58.4167°N, 22.5000°E)
Time: 05:09:23
(UTC+00:00)

Meteor 2-5 Rocket - Pass Details

Date: 22 September 2019
Orbit: 834 x 911 km, 81.2° (Epoch: 19 October)

Event Time Altitude Azimuth Distance (km) Brightness Sun altitude
Rises 17:39:43 0° 343° (NNW) 3,484 7.4 -9.7°
Reaches altitude 10° 17:42:09 10° 345° (NNW) 2,553 6.7 -10.1°
Maximum altitude 17:47:59 79° 73° (ENE) 916 3.8 -10.8°
Drops below altitude 10° 17:53:54 10° 161° (SSE) 2,582 5.9 -11.5°
Sets 17:56:22 0° 162° (SSE) 3,525 6.6 -11.8°
